Zurück zum Katalog

CZ-6A DEB

AktivPO
NORAD 61462·DEBRIS·🇨🇳 China

Gestartet Aug 6, 2024 von Taiyuan Satellite Launch Center

Loading…

Nächste Überflüge (nächste 24 Stunden)

TLE

AktuellSource: Space-Track

Epoche: Sep 12, 2026, 12:06 UTC

1 61462U 24140ZU  26255.50429289  .00002231  00000-0  83842-3 0  9995
2 61462  89.1123 274.3915 0074053 299.8144  59.5703 14.29791898104071

Verfolge CZ-6A DEB in Echtzeit mit AllMySat

Download on the App Store